Time,TemperatureF,DewpointF,PressureIn,WindDirection,WindDirectionDegrees,WindSpeedMPH,WindSpeedGustMPH,Humidity,HourlyPrecipIn,Conditions,Clouds,dailyrainin,SoftwareType,DateUTC
2013-06-10 00:02:00,72.0,48.0,-100.00,SSE,154,12.0,14.0,43,0.00,,,-99.99,,2013-06-10 06:02:00,
2013-06-10 00:12:00,72.0,48.0,-100.00,SSE,150,10.0,12.0,42,0.00,,,-99.99,,2013-06-10 06:12:00,
2013-06-10 00:22:00,72.0,48.0,-100.00,SSE,150,10.0,12.0,42,0.00,,,-99.99,,2013-06-10 06:22:00,
2013-06-10 00:32:00,72.0,48.0,-100.00,SSE,150,10.0,12.0,42,0.00,,,-99.99,,2013-06-10 06:32:00,
2013-06-10 00:42:00,71.0,47.0,-100.00,SE,140,8.0,10.0,44,0.00,,,-99.99,,2013-06-10 06:42:00,
2013-06-10 00:53:00,69.0,49.0,-100.00,SE,143,10.0,11.0,50,0.00,,,-99.99,,2013-06-10 06:53:00,
2013-06-10 01:02:00,69.0,49.0,-100.00,SE,143,10.0,11.0,50,0.00,,,-99.99,,2013-06-10 07:02:00,
2013-06-10 01:12:00,69.0,48.0,-100.00,SE,145,10.0,12.0,47,0.00,,,-99.99,,2013-06-10 07:12:00,
2013-06-10 01:22:00,69.0,48.0,-100.00,SE,145,10.0,12.0,47,0.00,,,-99.99,,2013-06-10 07:22:00,
2013-06-10 01:32:00,69.0,48.0,-100.00,SE,145,10.0,12.0,47,0.00,,,-99.99,,2013-06-10 07:32:00,
2013-06-10 01:42:00,68.0,48.0,-100.00,SE,131,6.0,9.0,48,0.00,,,-99.99,,2013-06-10 07:42:00,
2013-06-10 01:52:00,64.0,47.0,-100.00,SE,133,7.0,9.0,53,0.00,,,-99.99,,2013-06-10 07:52:00,
2013-06-10 02:02:00,64.0,47.0,-100.00,SE,133,7.0,9.0,53,0.00,,,-99.99,,2013-06-10 08:02:00,
2013-06-10 02:12:00,65.0,48.0,-100.00,SE,144,8.0,11.0,53,0.00,,,-99.99,,2013-06-10 08:12:00,
2013-06-10 02:22:00,65.0,47.0,-100.00,SE,131,7.0,9.0,53,0.00,,,-99.99,,2013-06-10 08:22:00,
2013-06-10 02:32:00,65.0,47.0,-100.00,SE,131,7.0,9.0,53,0.00,,,-99.99,,2013-06-10 08:32:00,
2013-06-10 02:42:00,64.0,47.0,-100.00,SE,134,8.0,10.0,54,0.00,,,-99.99,,2013-06-10 08:42:00,
2013-06-10 02:52:00,65.0,47.0,-100.00,SE,138,11.0,12.0,53,0.00,,,-99.99,,2013-06-10 08:52:00,
2013-06-10 03:02:00,65.0,47.0,-100.00,SE,138,11.0,12.0,53,0.00,,,-99.99,,2013-06-10 09:02:00,
2013-06-10 03:12:00,65.0,47.0,-100.00,SE,138,11.0,12.0,53,0.00,,,-99.99,,2013-06-10 09:12:00,
2013-06-10 03:22:00,59.0,50.0,-100.00,SSW,196,7.0,8.0,72,0.00,,,-99.99,,2013-06-10 09:22:00,
2013-06-10 03:32:00,59.0,50.0,-100.00,SSW,196,7.0,8.0,72,0.00,,,-99.99,,2013-06-10 09:32:00,
2013-06-10 03:43:00,58.0,50.0,-100.00,South,176,5.0,6.0,73,0.00,,,-99.99,,2013-06-10 09:43:00,
2013-06-10 03:53:00,62.0,47.0,-100.00,SE,144,9.0,12.0,56,0.00,,,-99.99,,2013-06-10 09:53:00,
2013-06-10 04:02:00,62.0,47.0,-100.00,SE,144,9.0,12.0,56,0.00,,,-99.99,,2013-06-10 10:02:00,
2013-06-10 04:12:00,61.0,50.0,-100.00,SSW,212,6.0,7.0,67,0.00,,,-99.99,,2013-06-10 10:12:00,
2013-06-10 04:22:00,61.0,50.0,-100.00,SSW,212,6.0,7.0,67,0.00,,,-99.99,,2013-06-10 10:22:00,
2013-06-10 04:33:00,61.0,50.0,-100.00,SSW,212,6.0,7.0,67,0.00,,,-99.99,,2013-06-10 10:33:00,
2013-06-10 04:42:00,60.0,50.0,-100.00,SSE,162,4.0,4.0,69,0.00,,,-99.99,,2013-06-10 10:42:00,
2013-06-10 04:52:00,60.0,52.0,-100.00,SSE,160,6.0,7.0,75,0.00,,,-99.99,,2013-06-10 10:52:00,
2013-06-10 05:02:00,60.0,52.0,-100.00,SSE,160,6.0,7.0,75,0.00,,,-99.99,,2013-06-10 11:02:00,
2013-06-10 05:12:00,59.0,51.0,-100.00,SSE,150,6.0,7.0,75,0.00,,,-99.99,,2013-06-10 11:12:00,
2013-06-10 05:22:00,60.0,48.0,-100.00,SE,124,6.0,8.0,64,0.00,,,-99.99,,2013-06-10 11:22:00,
2013-06-10 05:32:00,60.0,48.0,-100.00,SE,124,6.0,8.0,64,0.00,,,-99.99,,2013-06-10 11:32:00,
2013-06-10 05:42:00,60.0,48.0,-100.00,SE,134,7.0,9.0,64,0.00,,,-99.99,,2013-06-10 11:42:00,
2013-06-10 05:52:00,60.0,48.0,-100.00,SE,133,7.0,9.0,63,0.00,,,-99.99,,2013-06-10 11:52:00,
2013-06-10 06:02:00,60.0,48.0,-100.00,SE,133,7.0,9.0,63,0.00,,,-99.99,,2013-06-10 12:02:00,
2013-06-10 06:12:00,60.0,48.0,-100.00,SE,133,7.0,9.0,63,0.00,,,-99.99,,2013-06-10 12:12:00,
2013-06-10 06:22:00,63.0,49.0,-100.00,South,184,4.0,6.0,62,0.00,,,-99.99,,2013-06-10 12:22:00,
2013-06-10 06:32:00,63.0,49.0,-100.00,South,184,4.0,6.0,62,0.00,,,-99.99,,2013-06-10 12:32:00,
2013-06-10 06:42:00,62.0,49.0,-100.00,South,174,5.0,8.0,63,0.00,,,-99.99,,2013-06-10 12:42:00,
2013-06-10 06:52:00,62.0,49.0,-100.00,South,174,5.0,8.0,63,0.00,,,-99.99,,2013-06-10 12:52:00,
2013-06-10 07:02:00,62.0,49.0,-100.00,South,174,5.0,8.0,63,0.00,,,-99.99,,2013-06-10 13:02:00,
2013-06-10 07:11:00,63.0,48.0,-100.00,SSE,154,8.0,10.0,59,0.00,,,-99.99,,2013-06-10 13:11:00,
2013-06-10 07:22:00,64.0,47.0,-100.00,South,172,9.0,11.0,55,0.00,,,-99.99,,2013-06-10 13:22:00,
2013-06-10 07:32:00,64.0,47.0,-100.00,South,172,9.0,11.0,55,0.00,,,-99.99,,2013-06-10 13:32:00,
2013-06-10 07:42:00,64.0,47.0,-100.00,South,172,9.0,11.0,55,0.00,,,-99.99,,2013-06-10 13:42:00,
2013-06-10 07:52:00,64.0,48.0,-100.00,South,176,7.0,9.0,56,0.00,,,-99.99,,2013-06-10 13:52:00,
2013-06-10 08:02:00,69.0,54.0,-100.00,SSE,155,6.0,7.0,58,0.00,,,-99.99,,2013-06-10 14:02:00,
2013-06-10 08:22:00,72.0,56.0,-100.00,SE,137,5.0,6.0,57,0.00,,,-99.99,,2013-06-10 14:22:00,
2013-06-10 08:32:00,72.0,56.0,-100.00,SE,137,5.0,6.0,57,0.00,,,-99.99,,2013-06-10 14:32:00,
2013-06-10 08:42:00,74.0,55.0,-100.00,SSE,147,6.0,7.0,51,0.00,,,-99.99,,2013-06-10 14:42:00,
2013-06-10 08:52:00,76.0,53.0,-100.00,SE,143,3.0,5.0,44,0.00,,,-99.99,,2013-06-10 14:52:00,
2013-06-10 09:02:00,76.0,53.0,-100.00,SE,143,3.0,5.0,44,0.00,,,-99.99,,2013-06-10 15:02:00,
2013-06-10 09:12:00,77.0,48.0,-100.00,SSW,209,3.0,5.0,35,0.00,,,-99.99,,2013-06-10 15:12:00,
2013-06-10 09:22:00,77.0,48.0,-100.00,WSW,256,7.0,9.0,36,0.00,,,-99.99,,2013-06-10 15:22:00,
2013-06-10 09:32:00,77.0,48.0,-100.00,WSW,256,7.0,9.0,36,0.00,,,-99.99,,2013-06-10 15:32:00,
2013-06-10 09:43:00,77.0,49.0,-100.00,SW,226,7.0,9.0,37,0.00,,,-99.99,,2013-06-10 15:43:00,
2013-06-10 09:53:00,76.0,49.0,-100.00,WSW,248,11.0,13.0,38,0.00,,,-99.99,,2013-06-10 15:53:00,
2013-06-10 10:02:00,76.0,49.0,-100.00,WSW,248,11.0,13.0,38,0.00,,,-99.99,,2013-06-10 16:02:00,
2013-06-10 10:12:00,77.0,53.0,-100.00,West,267,8.0,9.0,42,0.00,,,-99.99,,2013-06-10 16:12:00,
2013-06-10 10:23:00,78.0,53.0,-100.00,West,268,8.0,10.0,41,0.00,,,-99.99,,2013-06-10 16:23:00,
2013-06-10 10:33:00,78.0,53.0,-100.00,West,268,8.0,10.0,41,0.00,,,-99.99,,2013-06-10 16:33:00,
2013-06-10 10:42:00,78.0,53.0,-100.00,WSW,256,9.0,11.0,41,0.00,,,-99.99,,2013-06-10 16:42:00,
2013-06-10 10:52:00,78.0,52.0,-100.00,WSW,253,10.0,11.0,41,0.00,,,-99.99,,2013-06-10 16:52:00,
2013-06-10 11:03:00,78.0,52.0,-100.00,WSW,253,10.0,11.0,41,0.00,,,-99.99,,2013-06-10 17:03:00,
2013-06-10 11:14:00,80.0,49.0,-100.00,WSW,254,8.0,11.0,35,0.00,,,-99.99,,2013-06-10 17:14:00,
2013-06-10 11:26:00,80.0,49.0,-100.00,WSW,254,8.0,11.0,35,0.00,,,-99.99,,2013-06-10 17:26:00,
2013-06-10 11:38:00,82.0,51.0,-100.00,WSW,246,7.0,9.0,34,0.00,,,-99.99,,2013-06-10 17:38:00,
2013-06-10 11:48:00,82.0,51.0,-100.00,WSW,246,7.0,9.0,34,0.00,,,-99.99,,2013-06-10 17:48:00,
2013-06-10 11:58:00,83.0,49.0,-100.00,WSW,250,8.0,11.0,32,0.00,,,-99.99,,2013-06-10 17:58:00,
2013-06-10 12:07:00,83.0,49.0,-100.00,WSW,250,8.0,11.0,32,0.00,,,-99.99,,2013-06-10 18:07:00,
2013-06-10 12:14:00,83.0,51.0,-100.00,WSW,257,7.0,9.0,33,0.00,,,-99.99,,2013-06-10 18:14:00,
2013-06-10 12:24:00,83.0,51.0,-100.00,WSW,257,7.0,9.0,33,0.00,,,-99.99,,2013-06-10 18:24:00,
2013-06-10 12:34:00,83.0,51.0,-100.00,WSW,257,7.0,9.0,33,0.00,,,-99.99,,2013-06-10 18:34:00,
2013-06-10 12:48:00,83.0,52.0,-100.00,West,277,7.0,10.0,34,0.00,,,-99.99,,2013-06-10 18:48:00,
2013-06-10 12:55:00,84.0,51.0,-100.00,West,271,8.0,11.0,32,0.00,,,-99.99,,2013-06-10 18:55:00,
2013-06-10 13:03:00,84.0,51.0,-100.00,West,271,8.0,11.0,32,0.00,,,-99.99,,2013-06-10 19:03:00,
2013-06-10 13:12:00,85.0,51.0,-100.00,West,268,8.0,10.0,31,0.00,,,-99.99,,2013-06-10 19:12:00,
2013-06-10 13:22:00,85.0,51.0,-100.00,West,268,8.0,10.0,31,0.00,,,-99.99,,2013-06-10 19:22:00,
2013-06-10 13:32:00,85.0,51.0,-100.00,West,268,8.0,10.0,31,0.00,,,-99.99,,2013-06-10 19:32:00,
2013-06-10 13:42:00,85.0,51.0,-100.00,West,270,7.0,9.0,31,0.00,,,-99.99,,2013-06-10 19:42:00,
2013-06-10 13:53:00,88.0,50.0,-100.00,West,267,7.0,8.0,27,0.00,,,-99.99,,2013-06-10 19:53:00,
2013-06-10 14:02:00,88.0,50.0,-100.00,West,267,7.0,8.0,27,0.00,,,-99.99,,2013-06-10 20:02:00,
2013-06-10 14:12:00,88.0,50.0,-100.00,West,267,7.0,8.0,27,0.00,,,-99.99,,2013-06-10 20:12:00,
2013-06-10 14:22:00,87.0,51.0,-100.00,West,275,7.0,9.0,29,0.00,,,-99.99,,2013-06-10 20:22:00,
2013-06-10 14:32:00,87.0,51.0,-100.00,West,275,7.0,9.0,29,0.00,,,-99.99,,2013-06-10 20:32:00,
2013-06-10 14:43:00,87.0,52.0,-100.00,NW,306,4.0,9.0,30,0.00,,,-99.99,,2013-06-10 20:43:00,
2013-06-10 14:52:00,89.0,50.0,-100.00,West,264,7.0,9.0,27,0.00,,,-99.99,,2013-06-10 20:52:00,
2013-06-10 15:02:00,89.0,50.0,-100.00,West,264,7.0,9.0,27,0.00,,,-99.99,,2013-06-10 21:02:00,
2013-06-10 15:12:00,90.0,51.0,-100.00,NW,312,3.0,4.0,27,0.00,,,-99.99,,2013-06-10 21:12:00,
2013-06-10 15:22:00,90.0,49.0,-100.00,West,265,3.0,5.0,24,0.00,,,-99.99,,2013-06-10 21:22:00,
2013-06-10 15:33:00,90.0,49.0,-100.00,West,265,3.0,5.0,24,0.00,,,-99.99,,2013-06-10 21:33:00,
2013-06-10 15:42:00,90.0,49.0,-100.00,West,265,3.0,5.0,24,0.00,,,-99.99,,2013-06-10 21:42:00,
2013-06-10 15:53:00,92.0,51.0,-100.00,NW,325,3.0,5.0,25,0.00,,,-99.99,,2013-06-10 21:53:00,
2013-06-10 16:02:00,91.0,50.0,-100.00,WNW,301,5.0,7.0,25,0.00,,,-99.99,,2013-06-10 22:02:00,
2013-06-10 16:12:00,91.0,50.0,-100.00,WNW,301,5.0,7.0,25,0.00,,,-99.99,,2013-06-10 22:12:00,
2013-06-10 16:22:00,92.0,51.0,-100.00,SSW,199,6.0,11.0,25,0.00,,,-99.99,,2013-06-10 22:22:00,
2013-06-10 16:33:00,92.0,51.0,-100.00,SSW,199,6.0,11.0,25,0.00,,,-99.99,,2013-06-10 22:33:00,
2013-06-10 16:42:00,90.0,59.0,-100.00,SSE,164,7.0,11.0,35,0.00,,,-99.99,,2013-06-10 22:42:00,
2013-06-10 16:52:00,90.0,59.0,-100.00,SSE,164,7.0,11.0,35,0.00,,,-99.99,,2013-06-10 22:52:00,
2013-06-10 17:02:00,90.0,59.0,-100.00,SSE,164,7.0,11.0,35,0.00,,,-99.99,,2013-06-10 23:02:00,
2013-06-10 17:12:00,88.0,39.0,-100.00,South,184,19.0,24.0,18,0.00,,,-99.99,,2013-06-10 23:12:00,
2013-06-10 17:22:00,87.0,44.0,-100.00,South,171,13.0,17.0,22,0.00,,,-99.99,,2013-06-10 23:22:00,
2013-06-10 17:32:00,87.0,44.0,-100.00,South,171,13.0,17.0,22,0.00,,,-99.99,,2013-06-10 23:32:00,
2013-06-10 17:42:00,89.0,38.0,-100.00,SSE,167,12.0,17.0,17,0.00,,,-99.99,,2013-06-10 23:42:00,
2013-06-10 17:52:00,89.0,38.0,-100.00,South,171,12.0,15.0,17,0.00,,,-99.99,,2013-06-10 23:52:00,
2013-06-10 18:02:00,89.0,38.0,-100.00,South,171,12.0,15.0,17,0.00,,,-99.99,,2013-06-11 00:02:00,
2013-06-10 18:12:00,89.0,47.0,-100.00,South,186,12.0,19.0,24,0.00,,,-99.99,,2013-06-11 00:12:00,
2013-06-10 18:22:00,88.0,41.0,-100.00,South,186,13.0,16.0,19,0.00,,,-99.99,,2013-06-11 00:22:00,
2013-06-10 18:32:00,88.0,41.0,-100.00,South,186,13.0,16.0,19,0.00,,,-99.99,,2013-06-11 00:32:00,
2013-06-10 18:42:00,88.0,32.0,-100.00,South,171,16.0,21.0,14,0.00,,,-99.99,,2013-06-11 00:42:00,
2013-06-10 18:52:00,89.0,34.0,-100.00,SSE,165,18.0,30.0,14,0.00,,,-99.99,,2013-06-11 00:52:00,
2013-06-10 19:02:00,89.0,34.0,-100.00,SSE,165,18.0,30.0,14,0.00,,,-99.99,,2013-06-11 01:02:00,
2013-06-10 19:12:00,87.0,32.0,-100.00,South,172,16.0,19.0,14,0.00,,,-99.99,,2013-06-11 01:12:00,
2013-06-10 19:22:00,87.0,34.0,-100.00,South,176,15.0,20.0,15,0.00,,,-99.99,,2013-06-11 01:22:00,
2013-06-10 19:32:00,87.0,34.0,-100.00,South,176,15.0,20.0,15,0.00,,,-99.99,,2013-06-11 01:32:00,
2013-06-10 19:42:00,87.0,35.0,-100.00,South,169,15.0,19.0,16,0.00,,,-99.99,,2013-06-11 01:42:00,
2013-06-10 19:52:00,86.0,37.0,-100.00,SSE,165,11.0,15.0,18,0.00,,,-99.99,,2013-06-11 01:52:00,
2013-06-10 20:02:00,86.0,37.0,-100.00,SSE,165,11.0,15.0,18,0.00,,,-99.99,,2013-06-11 02:02:00,
2013-06-10 20:12:00,85.0,33.0,-100.00,South,174,15.0,20.0,15,0.00,,,-99.99,,2013-06-11 02:12:00,
2013-06-10 20:22:00,84.0,36.0,-100.00,SSE,168,11.0,14.0,18,0.00,,,-99.99,,2013-06-11 02:22:00,
2013-06-10 20:32:00,84.0,36.0,-100.00,SSE,168,11.0,14.0,18,0.00,,,-99.99,,2013-06-11 02:32:00,
2013-06-10 20:42:00,82.0,41.0,-100.00,SSE,152,6.0,9.0,23,0.00,,,-99.99,,2013-06-11 02:42:00,
2013-06-10 20:52:00,80.0,38.0,-100.00,SSE,160,10.0,13.0,23,0.00,,,-99.99,,2013-06-11 02:52:00,
2013-06-10 21:02:00,80.0,38.0,-100.00,SSE,160,10.0,13.0,23,0.00,,,-99.99,,2013-06-11 03:02:00,
2013-06-10 21:12:00,76.0,40.0,-100.00,SSE,154,7.0,9.0,27,0.00,,,-99.99,,2013-06-11 03:12:00,
2013-06-10 21:22:00,74.0,42.0,-100.00,SE,143,7.0,9.0,31,0.00,,,-99.99,,2013-06-11 03:22:00,
2013-06-10 21:32:00,74.0,42.0,-100.00,SE,143,7.0,9.0,31,0.00,,,-99.99,,2013-06-11 03:32:00,
2013-06-10 21:42:00,73.0,39.0,-100.00,SE,128,7.0,10.0,29,0.00,,,-99.99,,2013-06-11 03:42:00,
2013-06-10 21:53:00,70.0,39.0,-100.00,SE,138,8.0,10.0,32,0.00,,,-99.99,,2013-06-11 03:53:00,
2013-06-10 22:02:00,70.0,39.0,-100.00,SE,138,8.0,10.0,32,0.00,,,-99.99,,2013-06-11 04:02:00,
2013-06-10 22:12:00,71.0,37.0,-100.00,ESE,121,10.0,14.0,30,0.00,,,-99.99,,2013-06-11 04:12:00,
2013-06-10 22:23:00,70.0,35.0,-100.00,SE,141,10.0,12.0,27,0.00,,,-99.99,,2013-06-11 04:23:00,
2013-06-10 22:33:00,70.0,35.0,-100.00,SE,141,10.0,12.0,27,0.00,,,-99.99,,2013-06-11 04:33:00,
2013-06-10 22:42:00,70.0,35.0,-100.00,SE,141,10.0,12.0,27,0.00,,,-99.99,,2013-06-11 04:42:00,
2013-06-10 22:52:00,72.0,33.0,-100.00,SE,140,13.0,15.0,23,0.00,,,-99.99,,2013-06-11 04:52:00,
2013-06-10 23:02:00,72.0,33.0,-100.00,SE,140,13.0,15.0,23,0.00,,,-99.99,,2013-06-11 05:02:00,
2013-06-10 23:12:00,73.0,33.0,-100.00,SSE,148,11.0,13.0,23,0.00,,,-99.99,,2013-06-11 05:12:00,
2013-06-10 23:22:00,73.0,33.0,-100.00,SSE,148,11.0,13.0,23,0.00,,,-99.99,,2013-06-11 05:22:00,
2013-06-10 23:32:00,73.0,33.0,-100.00,SSE,148,11.0,13.0,23,0.00,,,-99.99,,2013-06-11 05:32:00,
2013-06-10 23:42:00,72.0,33.0,-100.00,SE,145,11.0,13.0,23,0.00,,,-99.99,,2013-06-11 05:42:00,
2013-06-10 23:52:00,72.0,34.0,-100.00,SE,143,10.0,12.0,25,0.00,,,-99.99,,2013-06-11 05:52:00,